Location: Casa Rossa
(45.2389°N, 12.2056°E)
Time: 23:55:30
(UTC+00:00)

Cosmos 2322 Rocket - Pass Details

Date: 14 July 2020
Orbit: 832 x 851 km, 71.0° (Epoch: 14 August)

Event Time Altitude Azimuth Distance (km) Brightness Sun altitude
Rises 02:44:25 0° 336° (NNW) 3,406 5.6 -8.2°
Reaches altitude 10° 02:46:53 10° 339° (NNW) 2,470 4.9 -7.9°
Maximum altitude 02:52:32 65° 61° (ENE) 928 2.8 -7.2°
Drops below altitude 10° 02:58:10 10° 144° (SE) 2,467 4.6 -6.4°
Sets 03:00:38 0° 147° (SSE) 3,401 5.3 -6.1°
